Location: Helsinki
(60.1699°N, 24.9384°E)
Time: 23:17:39
(UTC+02:00)

Vanguard 2 Rocket - Pass Details

Date: 21 September 2023
Orbit: 553 x 3312 km, 32.9° (Epoch: 28 November)

Event Time Altitude Azimuth Distance (km) Brightness Sun altitude
Rises 17:36:40 0° 251° (WSW) 7,229 13.6 12.3°
Reaches altitude 10° 17:43:42 10° 238° (WSW) 5,968 13.2 11.5°
Maximum altitude 17:54:25 20° 201° (SSW) 4,530 11.1 10.2°
Drops below altitude 10° 18:02:50 10° 161° (SSE) 4,550 10.5 9.2°
Sets 18:07:09 0° 145° (SE) 5,087 10.5 8.7°
